Flag for Germany Weather past 2 weeks in Friesoythe, Lower Saxony, Germany

Now
52 °F

Rain. Fog.


Feels Like: 47 °F
Forecast: 41 / 44 °F
Wind: 14 mph from Southwest

Location: Meppen-Mil

Current Time: Dec 19, 2014 at 7:42:51 AM

Latest Report: Dec 19, 2014 at 6:20 AM


Visibility: 3 mi

Pressure: 29.68 "Hg

Humidity: 94%

Dew point: 50 °F

Location of FriesoytheLocation

Historic Weather in Friesoythe — Graph

°F

Friesoythe temperature yesterday

Maximum temperature yesterday: 54 °F (at 2:20 PM)
Minimum temperature yesterday: 48 °F (at 12:20 AM)
Average temperature yesterday: 52 °F

Past Weeks' High & Low Weather Summary

 TemperatureHumidityPressure
High54 °F (Dec 18, 2:20 PM)100% (Dec 6, 10:20 AM)30.33 "Hg (Dec 6, 10:20 AM)
Low30 °F (Dec 4, 6:20 AM)70% (Dec 10, 1:20 AM)29.24 "Hg (Dec 12, 11:20 AM)
Average40 °F88%29.86 "Hg
* Reported Dec 4 6:20 AM — Dec 19 6:20 AM, Friesoythe, Weather by CustomWeather, © 2014

Note: Actual official high and low records may vary slightly from our data, if they occured in-between our weather recording intervals... More about our weather records

Advertising

Friesoythe weather history for previous 24 hours

 ConditionsComfort  
Time TempWeatherWind HumidityBarometerVisibility
6:20 AM
Dec 19
52 °FRain. Fog.14 mph94%29.68 "Hg2 mi
5:20 AM52 °FCool.15 mph94%29.68 "Hg1 mi
4:20 AM52 °FCool.14 mph94%29.71 "Hg1 mi
3:20 AM52 °FCool.15 mph94%29.74 "Hg2 mi
2:20 AM52 °FCool.14 mph94%29.74 "Hg1 mi
1:20 AM54 °FCool.14 mph88%29.74 "Hg2 mi
12:20 AM54 °FCool.15 mph94%29.74 "Hg1 mi
11:20 PM
Dec 18
54 °FCool.15 mph88%29.71 "Hg1 mi
10:20 PM54 °FCool.15 mph88%29.71 "Hg1 mi
9:20 PM52 °FCool.16 mph94%29.71 "Hg1 mi
8:20 PM52 °FCool.17 mph94%29.71 "Hg2 mi
7:20 PM54 °FCool.17 mph88%29.71 "Hg4 mi
6:20 PM54 °FCool.15 mph94%29.71 "Hg2 mi
5:20 PM54 °FCool.14 mph94%29.68 "Hg4 mi
4:20 PM54 °FDrizzle. Fog.12 mph94%29.68 "Hg2 mi
3:20 PM54 °FDrizzle. Fog.13 mph88%29.68 "Hg3 mi
2:20 PM54 °FDrizzle. Fog.12 mph88%29.68 "Hg2 mi
1:20 PM52 °FDrizzle. Fog.10 mph94%29.71 "Hg1 mi
12:20 PM52 °FDrizzle. Fog.10 mph94%29.71 "Hg3 mi
11:20 AM52 °FBroken clouds.9 mph94%29.74 "Hg4 mi
10:20 AM52 °FDrizzle. Fog.9 mph88%29.74 "Hg3 mi
9:20 AM52 °FDrizzle. Fog.9 mph88%29.74 "Hg2 mi
8:20 AM52 °FFog.10 mph88%29.74 "Hg3 mi
7:20 AM50 °FDrizzle. Fog.10 mph94%29.74 "Hg2 mi
Weather by CustomWeather, © 2014

See weather overviewHow to use our weather pages